Regional Weather Roundup
Issued by NWS

Home | Current Version | Previous Version | Text Only | Print | Product List | Glossary Off
Versions: 1 2 3 4 5 6 7 8 9 10 11 12 13 14 15 16 17 18 19 20 21 22 23 24 25 26 27 28 29 30 31 32 33 34 35 36 37 38 39 40 41 42 43 44 45 46 47 48 49 50

000
ASUS43 KIND 152109
RWRIN

WEATHER ROUNDUP FOR INDIANA
NATIONAL WEATHER SERVICE INDIANAPOLIS IN
500 PM EDT TUE APR 15 2014

NOTE: "FAIR" INDICATES FEW OR NO CLOUDS BELOW 12,000 FEET WITH NO
SIGNIFICANT WEATHER AND/OR OBSTRUCTIONS TO VISIBILITY.

* - STATION DOES NOT REPORT WEATHER SUCH AS PRECIPITATION OR FOG.

+ - STATION NOT QUALITY CONTROLLED BY THE NATIONAL WEATHER SERVICE.
    USE DATA WITH CAUTION...ESPECIALLY DEWPOINT AND RELATIVE
    HUMIDITY OBSERVATIONS.

INZ001>003-010>013-019-020-152200-
NORTHWEST INDIANA

CITY           SKY/WX    TMP DP  RH WIND       PRES   REMARKS
GARY /AIRPORT/ PTSUNNY   36  18  48 NE7       30.17F
LA PORTE +     SUNNY     34  11  39 NW9       30.16S WCI  26
MICHIGAN CITY+ SUNNY     32  12  43 N6        30.18S WCI  26
MONTICELLO +   PTSUNNY   37  17  44 W12G22    30.16S
RENSSELAER +   CLOUDY    36  14  41 CALM      30.16F
VALPARAISO     PTSUNNY   33  12  41 VRB3      30.16S

$$

LMZ046-743>745-152200-
SOUTHERN LAKE MICHIGAN

STATION/POSITION TIME  TEMP WIND        PRES
                       AIR  DIR/SP/G
                 (UTC) (F)  (DEG/KT/KT) (MB)
MICHIGAN CITY    2100   30   10/  7/ 10   N/A

$$

INZ004-005-014>016-021>024-152200-
NORTH CENTRAL INDIANA

CITY           SKY/WX    TMP DP  RH WIND       PRES   REMARKS
GOSHEN         PTSUNNY   34  12  40 NW17G25   30.14R WCI  23
LOGANSPORT +   MOSUNNY   34  12  40 NW9       30.16S WCI  26
PERU/GRISSOM   PTSUNNY   37  13  36 NW15      30.14S
ROCHESTER +    SUNNY     37  10  32 NW10G21   30.16R
SOUTH BEND     SUNNY     35   9  33 NW13G21   30.16S WCI  26
WARSAW +       MOSUNNY   32  10  40 NW18      30.14R WCI  20

$$

INZ006>009-017-018-025>027-152200-
NORTHEAST INDIANA

CITY           SKY/WX    TMP DP  RH WIND       PRES   REMARKS
ANGOLA *+      MOSUNNY   32  12  43 NW15      30.10R WCI  22
AUBURN +       PTSUNNY   32  12  43 NW16G25   30.12R WCI  21
FORT WAYNE     PTSUNNY   33  13  43 NW15G23   30.13R WCI  23

$$

INZ028-029-035-036-043>045-051>053-152200-
WEST CENTRAL INDIANA

CITY           SKY/WX    TMP DP  RH WIND       PRES   REMARKS
GREENCASTLE +  CLOUDY    36  18  48 NW9G17    30.17S
LAFAYETTE      CLOUDY    36  15  42 NW12      30.17S
TERRE HAUTE    CLOUDY    39  20  46 NW13G22   30.18R

$$

INZ030>032-037>040-046>048-054>057-064-065-152200-
CENTRAL INDIANA

CITY           SKY/WX    TMP DP  RH WIND       PRES   REMARKS
CP ATTERBURY + PTSUNNY   39  19  45 NW16      30.16S
COLUMBUS       MOSUNNY   39  21  48 MISG      30.16S
GREENWOOD *+   PTSUNNY   36  18  48 NW16G24   30.16R
INDIANAPOLIS   PTSUNNY   35  18  49 NW17G30   30.15S WCI  25
-EAGLE CREEK   PTSUNNY   37  17  44 W15G21    30.15S
KOKOMO *+      MOSUNNY   36  12  38 N16       30.14S
MARION +       PTSUNNY   35  13  40 NW14G21   30.14S WCI  26
MT COMFORT *+  MOSUNNY   36  19  51 NW14G20   30.15R
SHELBYVILLE    CLOUDY    40  18  41 NW16G24   30.15R
ZIONSVILLE +   CLOUDY    35  16  46 NW10G17   30.16R WCI  27

$$

INZ033-034-041-042-049-050-058-059-152200-
EAST CENTRAL INDIANA

CITY           SKY/WX    TMP DP  RH WIND       PRES   REMARKS
MUNCIE         CLOUDY    34  17  50 NW16      30.13R WCI  24

$$

INZ060-061-067>069-081>083-085>088-152200-
SOUTHWEST INDIANA

CITY           SKY/WX    TMP DP  RH WIND       PRES   REMARKS
EVANSVILLE     CLOUDY    42  22  44 N13       30.20S
HUNTINGBURG *+ CLOUDY    41  21  45 N14       30.19S
WASHINGTON +   PTSUNNY   40  23  50 N12       30.18F

$$

INZ062-063-066-070>080-084-089>092-152200-
SOUTH CENTRAL AND SOUTHEAST INDIANA

CITY           SKY/WX    TMP DP  RH WIND       PRES   REMARKS
BLOOMINGTON    MOSUNNY   39  16  39 NW8       30.15S

$$




USA.gov is the U.S. government's official web portal to all federal, state and local government web resources and services.